Volver al catálogo

STARLINK-35283

ActivoComunicacionesVLEO
NORAD 66478·PAYLOAD·🇺🇸 United States

Lanzado Nov 15, 2025 desde Cape Canaveral Space Force Station

Loading…

Próximos Pases (próximas 24 horas)

TLE

ActualizadoSource: CelesTrak SupGP

Época: Sep 15, 2026, 02:39 UTC

1 66478C 25262Y   26258.11090278  .00039193  00000+0  14194-2 0  2582
2 66478  43.0019 306.6665 0001400 261.8149  74.6725 15.27563083    10

Sigue STARLINK-35283 en tiempo real con AllMySat

Download on the App Store